Track EGYPTSAT 1 now! 10-day predictions EGYPTSAT 1 is classified as:
1 31117U 07012A 24325.85754046 .00002894 00000-0 41476-3 0 9996 2 31117 97.9854 272.8111 0005759 137.6486 222.5170 14.77314470945038